World > North America > United States > Wisconsin

Mellen, Wisconsin Regional Weather

Lat: 46.32N, Lon: 90.66W
Wx Zone: WIZ003Web Search

Helpful Tip: Abbreviated, 7 Day, 14 Day Forecasts. There is a weather forecast for every taste.

Feedback
Mellen Weather Map
UTC Time: 10/24/2020, 14:16
Your Time:

Mellen, WI Regional Weather

Expires:202010241500;;765485
ASUS43 KMKX 241411
RWRWI 

WISCONSIN REGIONAL WEATHER ROUNDUP
NATIONAL WEATHER SERVICE MILWAUKEE/SULLIVAN WI
900 AM CDT SAT OCT 24 2020

NOTE: "FAIR" INDICATES FEW OR NO CLOUDS BELOW 12,000 FEET WITH NO
SIGNIFICANT WEATHER AND/OR OBSTRUCTIONS TO VISIBILITY.


WIZ003>005-009-010-017-018-241500-
NORTH CENTRAL WISCONSIN
  
CITY           SKY/WX    TMP DP  RH WIND       PRES   REMARKS
MANITOWISH WTR CLOUDY    24  19  83 W5        30.26R WCI  18          
ARBOR VITAE    CLOUDY    27  21  79 W7        30.26R WCI  19          
WOODRUFF       CLOUDY    27  21  79 W7        30.26R WCI  19          
RHINELANDER    CLOUDY    26  18  71 W7        30.27R WCI  18          
EAGLE RIVER    CLOUDY    25  18  74 W7        30.25R WCI  17          
LAND O LAKES   CLOUDY    26  20  80 W3        30.26R                  
PHILLIPS       PTSUNNY   24  18  78 W3        30.28S                  
TOMAHAWK       CLOUDY    26  17  70 NW7       30.29R WCI  18          
MEDFORD        PTSUNNY   26  18  73 W10       30.29R WCI  16          
MERRILL        CLOUDY    29  21  73 N8        30.28R WCI  21          
$$
 

SKY/WX - Weather  TMP - Temperature  DP - Dew Point  RH - Relative Humidity
WIND - Wind Direction/Speed PRES - Barometric Pressure VSB - Visibility
WCI - Wind Chill Index E13G22 Wind - East Wind 13 mph/Gusts of 22 mph